Monterey, CA

4:27 AM PST on November 21, 2017 (GMT -0800)
Monterey Peninsula

Weather History for KMRY - January, 2014

Change the Weather History Date:

Tuesday, January 28, 2014

  Actual Average Record
Temperature  
Mean Temperature 56 °F 52 °F  
Max Temperature 64 °F 60 °F 75 °F (2012)
Min Temperature 48 °F 43 °F 34 °F (1999)
Degree Days  
Heating Degree Days 9    
Month to date heating degree days 263  
Since 1 July heating degree days 1478  
Cooling Degree Days 0    
Month to date cooling degree days 2  
Year to date cooling degree days 2  
Growing Degree Days 6 (Base 50)    
Moisture  
Dew Point 51 °F    
Average Humidity 76    
Maximum Humidity 96    
Minimum Humidity 56    
Precipitation  
Precipitation 0.00 in - 0.47 in (1950)
Month to date precipitation T  
Year to date precipitation T  
Since 1 July precipitation 1.28  
Sea Level Pressure  
Sea Level Pressure 30.24 in    
Wind  
Wind Speed 3 mph (SSW)    
Max Wind Speed 10 mph    
Max Gust Speed 13 mph    
Visibility 6 miles    
Events Fog    
T = Trace of Precipitation, MM = Missing Value Source: NWS Daily Summary

Daily Weather History Graph

Daily Weather History Graph

Search for Another Location

Airport or City:

Trip Planner

Search our weather history database for the weather conditions in past years. The results will help you decide how hot, cold, wet, or windy it might be!

Date:

Astronomy

Jan. 28, 2014 Rise Set
Actual Time 7:12 AM PST 5:29 PM PST
Civil Twilight 6:44 AM PST 5:56 PM PST
Nautical Twilight 6:13 AM PST 6:27 PM PST
Astronomical Twilight 5:43 AM PST 6:58 PM PST
Moon 4:57 AM PST (1/28) 3:26 PM PST (1/28)
Length of Visible Light 11h 11m
Length of Day
10h 17m
Waning Crescent, 6% of the Moon is Illuminated
Jan 28
Waning Crescent
Jan 30
New
Feb 6
First Quarter
Feb 14
Full
Feb 22
Last Quarter

Hourly Weather History & Observations

Time (PST) Temp. Dew Point Humidity Pressure Visibility Wind Dir Wind Speed Gust Speed Precip Events Conditions
12:10 AM 53.6 °F 48.2 °F 82% 30.21 in 10.0 mi SSE 4.6 mph - N/A   Scattered Clouds
12:22 AM 51.8 °F 48.2 °F 88% 30.20 in 10.0 mi SSE 3.5 mph - N/A   Mostly Cloudy
12:42 AM 51.8 °F 48.2 °F 88% 30.19 in 10.0 mi ESE 3.5 mph - N/A   Scattered Clouds
12:54 AM 51.1 °F 46.9 °F 86% 30.22 in 10.0 mi East 4.6 mph - N/A   Clear
1:54 AM 52.0 °F 48.9 °F 89% 30.24 in 9.0 mi Calm Calm - N/A   Partly Cloudy
2:06 AM 53.6 °F 51.8 °F 94% 30.21 in 7.0 mi Calm Calm - N/A   Mostly Cloudy
2:54 AM 50.0 °F 46.0 °F 86% 30.25 in 10.0 mi East 6.9 mph - N/A   Mostly Cloudy
3:50 AM 51.8 °F 48.2 °F 88% 30.20 in 1.8 mi SE 4.6 mph - N/A   Overcast
3:54 AM 51.1 °F 50.0 °F 96% 30.24 in 1.0 mi SE 3.5 mph - N/A   Overcast
4:07 AM 51.8 °F 50.0 °F 94% 30.20 in 0.5 mi Calm Calm - N/A Fog Fog
4:14 AM 50.0 °F 48.2 °F 94% 30.20 in 0.2 mi Calm Calm - N/A Fog Fog
4:33 AM 51.8 °F 50.0 °F 94% 30.20 in 0.8 mi Calm Calm - N/A   Mist
4:54 AM 51.1 °F 50.0 °F 96% 30.25 in 0.8 mi Calm Calm - N/A   Mist
5:13 AM 48.2 °F 48.2 °F 100% 30.21 in 1.2 mi East 3.5 mph - N/A   Overcast
5:54 AM 51.1 °F 50.0 °F 96% 30.26 in 1.2 mi East 4.6 mph - N/A   Overcast
6:00 AM 50.0 °F 48.2 °F 94% 30.22 in 0.8 mi East 4.6 mph - N/A   Mist
6:36 AM 48.2 °F 46.4 °F 93% 30.22 in 3.0 mi East 5.8 mph - N/A   Mostly Cloudy
6:47 AM 48.2 °F 48.2 °F 100% 30.22 in 10.0 mi East 3.5 mph - N/A   Scattered Clouds
6:54 AM 48.0 °F 46.9 °F 96% 30.26 in 10.0 mi ESE 4.6 mph - N/A   Partly Cloudy
7:23 AM 48.2 °F 46.4 °F 93% 30.22 in 3.0 mi Calm Calm - N/A   Mostly Cloudy
7:25 AM 48.2 °F 46.4 °F 93% 30.22 in 0.8 mi Calm Calm - N/A   Mist
7:43 AM 48.2 °F 46.4 °F 93% 30.22 in 0.2 mi Calm Calm - N/A Fog Fog
7:54 AM 48.9 °F 46.9 °F 93% 30.27 in 0.2 mi Calm Calm - N/A Fog Fog
8:14 AM 50.0 °F 50.0 °F 100% 30.23 in 0.2 mi Calm Calm - N/A Fog Fog
8:54 AM 51.1 °F 50.0 °F 96% 30.28 in 0.2 mi Calm Calm - N/A Fog Fog
9:08 AM 51.8 °F 50.0 °F 94% 30.25 in 0.5 mi Calm Calm - N/A Fog Fog
9:16 AM 51.8 °F 50.0 °F 94% 30.24 in 0.8 mi Calm Calm - N/A   Overcast
9:22 AM 51.8 °F 51.8 °F 100% 30.24 in 2.0 mi Calm Calm - N/A   Mostly Cloudy
9:29 AM 51.8 °F 51.8 °F 100% 30.24 in 5.0 mi Calm Calm - N/A   Scattered Clouds
9:54 AM 55.0 °F 51.1 °F 86% 30.30 in 8.0 mi Calm Calm - N/A   Clear
10:54 AM 60.1 °F 51.1 °F 72% 30.29 in 10.0 mi Calm Calm - N/A   Clear
11:54 AM 61.0 °F 50.0 °F 67% 30.28 in 10.0 mi Calm Calm - N/A   Clear
12:54 PM 63.0 °F 46.9 °F 56% 30.24 in 10.0 mi NNW 4.6 mph - N/A   Clear
1:54 PM 59.0 °F 48.9 °F 69% 30.23 in 9.0 mi WNW 6.9 mph - N/A   Clear
2:50 PM 60.8 °F 53.6 °F 77% 30.20 in 10.0 mi West 6.9 mph - N/A   Mostly Cloudy
2:51 PM 61.0 °F 54.0 °F 78% 30.23 in 10.0 mi West 5.8 mph - N/A   Mostly Cloudy
3:12 PM 57.2 °F 55.4 °F 94% 30.20 in 10.0 mi WSW 5.8 mph - N/A   Overcast
3:54 PM 59.0 °F 55.9 °F 90% 30.24 in 10.0 mi West 3.5 mph - N/A   Overcast
4:27 PM 60.8 °F 55.4 °F 82% 30.20 in 10.0 mi WSW 4.6 mph - N/A   Overcast
4:54 PM 59.0 °F 55.9 °F 90% 30.25 in 10.0 mi West 5.8 mph - N/A   Overcast
5:09 PM 57.2 °F 55.4 °F 94% 30.21 in 6.0 mi WSW 3.5 mph - N/A   Overcast
5:54 PM 59.0 °F 55.9 °F 90% 30.25 in 6.0 mi SSW 3.5 mph - N/A   Overcast
6:16 PM 59.0 °F 55.4 °F 88% 30.22 in 10.0 mi WSW 4.6 mph - N/A   Overcast
6:54 PM 60.1 °F 55.9 °F 86% 30.26 in 10.0 mi South 4.6 mph - N/A   Overcast
7:54 PM 59.0 °F 55.9 °F 90% 30.27 in 10.0 mi SW 6.9 mph - N/A   Overcast
8:51 PM 59.0 °F 55.4 °F 88% 30.24 in 10.0 mi SW 10.4 mph - N/A   Overcast
8:54 PM 59.0 °F 55.9 °F 90% 30.28 in 10.0 mi SW 8.1 mph - N/A   Overcast
9:03 PM 59.0 °F 55.4 °F 88% 30.24 in 10.0 mi SW 6.9 mph - N/A   Overcast
9:54 PM 59.0 °F 55.9 °F 90% 30.28 in 10.0 mi Calm Calm - N/A   Overcast
10:54 PM 60.1 °F 57.0 °F 90% 30.27 in 10.0 mi Calm Calm - N/A   Overcast
11:54 PM 60.1 °F 55.9 °F 86% 30.27 in 10.0 mi West 4.6 mph - N/A   Overcast